Location: Newark
(34.9500°N, 139.9667°E)
Time: 23:48:35
(UTC+00:00)

Altair - Pass Details

Date: 18 December 2019
Orbit: 1502 x 1682 km, 47.2° (Epoch: 24 January)

Event Time Altitude Azimuth Distance (km) Brightness Sun altitude
Rises 11:45:09 0° 276° (W) 4,807 10.7 -51.2°
Reaches altitude 10° 11:48:36 10° 284° (WNW) 3,795 10.0 -51.9°
Enters shadow 11:53:00 27° 303° (WNW) 2,680 8.9 -52.8°
